Fitchburg, MA

12:25 PM EDT on August 23, 2019 (GMT -0400)
Fitchburg Municipal

Weather History for KFIT - July, 2019

Change the Weather History Date:

Friday, July 19, 2019

  Actual Average (KORH) Record (KORH)
Temperature  
Mean Temperature 78 °F -  
Max Temperature 91 °F 80 °F 95 °F (1991)
Min Temperature 66 °F 63 °F 52 °F (1944)
Cooling Degree Days 13    
Growing Degree Days 28 (Base 50)    
Moisture  
Dew Point 65 °F    
Average Humidity 64    
Maximum Humidity 82    
Minimum Humidity 52    
Precipitation  
Precipitation 0.00 in - - ()
Sea Level Pressure  
Sea Level Pressure 29.85 in    
Wind  
Wind Speed 3 mph (SW)    
Max Wind Speed 9 mph    
Max Gust Speed -    
Visibility 10 miles    
Events      
Averages and records for this station are not official NWS values.
T = Trace of Precipitation, MM = Missing Value Source: NWS Daily Summary

Daily Weather History Graph

Daily Weather History Graph

Search for Another Location

Airport or City:

Astronomy

Jul. 19, 2019 Rise Set
Actual Time 5:26 AM EDT 8:19 PM EDT
Civil Twilight 4:52 AM EDT 8:53 PM EDT
Nautical Twilight 4:10 AM EDT 9:35 PM EDT
Astronomical Twilight 3:21 AM EDT 10:24 PM EDT
Moon 10:13 PM EDT (7/19) 7:51 AM EDT (7/19)
Length of Visible Light 16h 00m
Length of Day
14h 53m
Waning Gibbous, 93% of the Moon is Illuminated
Jul 19
Waning Gibbous
Jul 24
Last Quarter
Jul 31
New
Aug 7
First Quarter
Aug 15
Full

Hourly Weather History & Observations

Time (EDT) Temp. Heat Index Dew Point Humidity Pressure Visibility Wind Dir Wind Speed Gust Speed Precip Events Conditions
12:52 AM 66.9 °F - 57.9 °F 73% 29.94 in 10.0 mi Calm Calm - N/A   Overcast
1:52 AM 68.0 °F - 55.0 °F 63% 29.93 in 10.0 mi Calm Calm - N/A   Overcast
2:52 AM 66.9 °F - 55.9 °F 68% 29.91 in 10.0 mi Calm Calm - N/A   Overcast
3:52 AM 66.9 °F - 55.0 °F 66% 29.91 in 10.0 mi NW 3.5 mph - N/A   Overcast
4:52 AM 66.9 °F - 54.0 °F 63% 29.91 in 10.0 mi NW 3.5 mph - N/A   Overcast
5:52 AM 66.9 °F - 53.1 °F 61% 29.92 in 10.0 mi NW 4.6 mph - N/A   Overcast
6:52 AM 68.0 °F - 53.1 °F 59% 29.91 in 10.0 mi Calm Calm - N/A   Overcast
7:52 AM 69.1 °F - 55.0 °F 61% 29.91 in 10.0 mi Calm Calm - N/A   Overcast
8:52 AM 72.0 °F - 57.0 °F 59% 29.90 in 10.0 mi Calm Calm - N/A   Overcast
9:47 AM 75.2 °F - 62.6 °F 65% 29.88 in 10.0 mi ESE 4.6 mph - N/A   Scattered Clouds
9:52 AM 75.9 °F - 63.0 °F 64% 29.88 in 10.0 mi SSE 4.6 mph - N/A   Partly Cloudy
10:52 AM 80.1 °F 82.1 °F 66.0 °F 62% 29.88 in 10.0 mi Calm Calm - N/A   Clear
11:52 AM 84.0 °F 87.8 °F 69.1 °F 61% 29.86 in 10.0 mi SW 3.5 mph - N/A   Clear
12:52 PM 86.0 °F 90.1 °F 69.1 °F 57% 29.84 in 10.0 mi SSW 8.1 mph - N/A   Clear
1:52 PM 88.0 °F 92.9 °F 70.0 °F 55% 29.82 in 10.0 mi Variable 4.6 mph - N/A   Clear
2:52 PM 90.0 °F 95.4 °F 70.0 °F 52% 29.80 in 10.0 mi West 6.9 mph - N/A   Clear
3:52 PM 89.1 °F 95.0 °F 71.1 °F 55% 29.81 in 10.0 mi WSW 8.1 mph - N/A   Clear
4:52 PM 90.0 °F 96.9 °F 72.0 °F 55% 29.79 in 10.0 mi SW 8.1 mph - N/A   Scattered Clouds
5:52 PM 88.0 °F 95.6 °F 73.0 °F 61% 29.78 in 10.0 mi SSW 9.2 mph - N/A   Partly Cloudy
6:52 PM 88.0 °F 96.5 °F 73.9 °F 63% 29.78 in 10.0 mi SSW 6.9 mph - N/A   Clear
7:52 PM 86.0 °F 93.8 °F 73.9 °F 67% 29.78 in 10.0 mi SSW 5.8 mph - N/A   Clear
8:52 PM 84.9 °F 92.1 °F 73.9 °F 69% 29.79 in 10.0 mi Calm Calm - N/A   Clear
9:52 PM 84.0 °F 91.2 °F 73.9 °F 72% 29.80 in 10.0 mi Calm Calm - N/A   Clear
10:52 PM 81.0 °F 86.7 °F 75.0 °F 82% 29.80 in 10.0 mi SE 5.8 mph - N/A   Clear
11:52 PM 82.0 °F 88.6 °F 75.0 °F 79% 29.79 in 10.0 mi SE 3.5 mph - N/A   Clear